Flag for United Kingdom

Past Weather in Prestwick, Scotland, United Kingdom — Yesterday and Last 2 Weeks

Now
55 °F

Partly cloudy.


Feels Like: 53 °F
Forecast: 63 / 57 °F
Wind: 9 mph from Southwest

Location: Prestwick Airport

Current Time: Jul 15, 2020 at 1:03:32 am

Latest Report: Jul 15, 2020 at 12:20 am


Visibility: N/A

Pressure: 29.92 "Hg

Humidity: 94%

Dew Point: 54 °F

Location of PrestwickLocation

Past Weather in Prestwick — Graph

°F

Prestwick Temperature Yesterday

Maximum temperature yesterday: 59 °F (at 11:50 am)
Minimum temperature yesterday: 54 °F (at 12:50 am)
Average temperature yesterday: 56 °F

High & Low Weather Summary for the Past Weeks

 TemperatureHumidityPressure
High68 °F (Jul 12, 2:50 pm)100% (Jul 1, 7:50 am)30.36 "Hg (Jul 1, 7:50 am)
Low46 °F (Jul 8, 2:50 am)46% (Jul 12, 4:20 pm)29.33 "Hg (Jul 5, 12:20 am)
Average57 °F81%29.91 "Hg
* Reported Jun 29 11:20 pm — Jul 14 11:50 pm, Prestwick. Weather by CustomWeather, © 2020

Note: Actual official high and low records may vary slightly from our data, if they occured in-between our weather recording intervals... More about our weather records

Prestwick Weather History for the Previous 24 Hours

Scroll right to see more
 ConditionsComfort  
Time TempWeatherWind HumidityBarometerVisibility
11:50 pm
Tue, Jul 14
55 °FPartly cloudy.8 mph94%29.95 "HgN/A
11:20 pm55 °FPartly cloudy.9 mph94%29.92 "HgN/A
10:50 pm55 °FPartly cloudy.9 mph94%29.92 "HgN/A
10:20 pm55 °FPartly cloudy.10 mph94%29.92 "HgN/A
9:50 pm55 °FBroken clouds.12 mph94%29.92 "HgN/A
9:20 pm55 °FScattered clouds.12 mph94%29.92 "HgN/A
8:50 pm55 °FScattered clouds.10 mph94%29.92 "HgN/A
7:50 pm55 °FLight rain. Broken clouds.12 mph94%29.95 "Hg2 mi
7:20 pm55 °FDrizzle. Broken clouds.10 mph94%29.95 "Hg2 mi
6:50 pm55 °FBroken clouds.9 mph94%29.95 "HgN/A
6:20 pm57 °FBroken clouds.12 mph88%29.95 "HgN/A
5:50 pm57 °FBroken clouds.12 mph88%29.95 "HgN/A
5:20 pm57 °FBroken clouds.12 mph88%29.95 "HgN/A
4:50 pm57 °FBroken clouds.13 mph88%29.95 "HgN/A
4:20 pm57 °FBroken clouds.14 mph88%29.98 "HgN/A
3:50 pm57 °FDrizzle. Broken clouds.15 mph88%29.98 "HgN/A
3:20 pm57 °FDrizzle. Broken clouds.14 mph88%29.98 "HgN/A
2:50 pm57 °FBroken clouds.13 mph88%29.98 "HgN/A
2:20 pm57 °FPartly sunny.16 mph88%30.01 "HgN/A
1:50 pm59 °FPartly sunny.16 mph82%30.01 "HgN/A
1:20 pm57 °FPartly sunny.15 mph82%30.01 "HgN/A
12:50 pm57 °FBroken clouds.13 mph82%30.01 "HgN/A
12:20 pm57 °FLight rain. Broken clouds.14 mph82%30.01 "HgN/A
11:50 am59 °FBroken clouds.8 mph72%30.01 "HgN/A
11:20 am57 °FBroken clouds.7 mph77%30.01 "HgN/A
10:50 am57 °FBroken clouds.6 mph77%30.04 "HgN/A
10:20 am57 °FBroken clouds.7 mph77%30.04 "HgN/A
9:50 am57 °FBroken clouds.7 mph77%30.04 "HgN/A
9:20 am55 °FBroken clouds.9 mph82%30.04 "HgN/A
8:50 am55 °FPartly sunny.8 mph82%30.04 "HgN/A
8:20 am55 °FPartly sunny.9 mph77%30.04 "HgN/A
7:50 am55 °FPartly sunny.6 mph82%30.04 "HgN/A
7:20 am55 °FPartly sunny.8 mph77%30.04 "HgN/A
6:50 am55 °FPartly sunny.12 mph77%30.04 "HgN/A
5:50 am54 °FPartly sunny.9 mph82%30.04 "HgN/A
4:50 am54 °FPassing clouds.8 mph82%30.04 "HgN/A
3:50 am54 °FPassing clouds.10 mph88%30.04 "HgN/A
2:50 am54 °FPassing clouds.6 mph88%30.04 "HgN/A
1:50 am54 °FPartly cloudy.8 mph88%30.07 "HgN/A
Weather by CustomWeather, © 2020

See weather overview